TimeEDT,TemperatureF,Dew PointF,Humidity,Sea Level PressureIn,VisibilityMPH,Wind Direction,Wind SpeedMPH,Gust SpeedMPH,PrecipitationIn,Events,Conditions,WindDirDegrees,DateUTC
12:58 AM,66.7,64.6,93,30.04,10.0,South,5.8,-,N/A,,Clear,180,2013-10-04 04:58:00
1:58 AM,66.0,64.6,95,30.05,10.0,South,3.5,-,N/A,,Clear,170,2013-10-04 05:58:00
2:58 AM,65.5,64.4,96,30.05,10.0,South,4.6,-,N/A,,Clear,170,2013-10-04 06:58:00
3:58 AM,64.9,64.0,97,30.05,10.0,SSE,5.8,-,N/A,,Clear,160,2013-10-04 07:58:00
4:58 AM,64.2,63.5,98,30.05,10.0,SSE,2.3,-,N/A,,Clear,160,2013-10-04 08:58:00
5:08 AM,64.4,64.4,100,30.05,10.0,SE,3.5,-,N/A,,Clear,130,2013-10-04 09:08:00
5:38 AM,64.4,64.4,100,30.05,10.0,SE,3.5,-,N/A,,Mostly Cloudy,130,2013-10-04 09:38:00
5:58 AM,64.2,63.7,98,30.05,9.0,SE,4.6,-,N/A,,Mostly Cloudy,140,2013-10-04 09:58:00
6:18 AM,64.4,64.4,100,30.06,9.0,SSE,5.8,-,N/A,,Mostly Cloudy,150,2013-10-04 10:18:00
6:58 AM,65.1,64.4,98,30.06,10.0,SSE,4.6,-,N/A,,Mostly Cloudy,150,2013-10-04 10:58:00
7:58 AM,64.9,64.2,98,30.09,9.0,SSE,3.5,-,N/A,,Mostly Cloudy,160,2013-10-04 11:58:00
8:44 AM,66.2,64.4,94,30.10,10.0,SE,4.6,-,N/A,,Drizzle,140,2013-10-04 12:44:00
8:55 AM,66.2,64.4,94,30.10,10.0,SSE,4.6,-,N/A,,Scattered Clouds,150,2013-10-04 12:55:00
8:56 AM,66.2,64.4,94,30.10,10.0,SSE,5.8,-,N/A,,Light Drizzle,150,2013-10-04 12:56:00
8:58 AM,66.2,64.4,94,30.10,10.0,SSE,5.8,-,0.01,,Drizzle,150,2013-10-04 12:58:00
9:27 AM,68.0,66.2,94,30.10,10.0,SSE,3.5,-,N/A,,Partly Cloudy,150,2013-10-04 13:27:00
9:58 AM,69.1,66.7,92,30.10,10.0,South,6.9,-,0.01,,Clear,180,2013-10-04 13:58:00
10:58 AM,70.2,66.7,89,30.10,10.0,SSW,5.8,-,N/A,,Clear,210,2013-10-04 14:58:00
11:58 AM,76.3,68.2,76,30.09,10.0,WSW,8.1,-,N/A,,Clear,240,2013-10-04 15:58:00
12:58 PM,79.2,69.3,72,30.08,10.0,SW,6.9,-,N/A,,Clear,220,2013-10-04 16:58:00
1:58 PM,82.0,69.1,65,30.06,10.0,SW,11.5,-,N/A,,Partly Cloudy,220,2013-10-04 17:58:00
2:40 PM,78.8,68.0,69,30.05,10.0,SW,13.8,-,N/A,,Mostly Cloudy,220,2013-10-04 18:40:00
2:50 PM,78.8,68.0,69,30.05,7.0,SW,12.7,-,N/A,Rain,Light Rain,220,2013-10-04 18:50:00
2:58 PM,78.4,69.6,74,30.06,7.0,SW,16.1,-,0.00,Rain,Light Rain,220,2013-10-04 18:58:00
3:24 PM,73.4,71.6,94,30.05,10.0,SW,10.4,-,N/A,,Mostly Cloudy,220,2013-10-04 19:24:00
3:58 PM,73.9,69.6,86,30.05,10.0,SW,5.8,-,0.02,,Mostly Cloudy,220,2013-10-04 19:58:00
4:58 PM,76.6,70.0,80,30.04,10.0,South,1.2,-,N/A,,Mostly Cloudy,190,2013-10-04 20:58:00
5:58 PM,76.8,70.0,79,30.05,10.0,West,1.2,-,N/A,,Mostly Cloudy,260,2013-10-04 21:58:00
6:58 PM,77.0,69.4,77,30.05,10.0,Calm,Calm,-,N/A,,Mostly Cloudy,0,2013-10-04 22:58:00
7:58 PM,71.6,69.1,92,30.06,10.0,East,2.3,-,N/A,,Mostly Cloudy,80,2013-10-04 23:58:00
8:58 PM,71.1,68.7,92,30.06,10.0,West,1.2,-,N/A,,Partly Cloudy,260,2013-10-05 00:58:00
9:48 PM,69.8,68.0,94,30.06,8.0,Calm,Calm,-,N/A,,Scattered Clouds,0,2013-10-05 01:48:00
9:58 PM,69.3,67.8,95,30.07,10.0,Calm,Calm,-,N/A,,Partly Cloudy,0,2013-10-05 01:58:00
10:58 PM,68.4,67.8,98,30.07,10.0,SW,1.2,-,N/A,,Partly Cloudy,220,2013-10-05 02:58:00
11:58 PM,68.7,66.4,92,30.06,10.0,Calm,Calm,-,N/A,,Scattered Clouds,0,2013-10-05 03:58:00